Regional Weather Roundup
Issued by NWS Sioux Falls, SD

Home | Current Version | Previous Version | Text Only | Print | Product List | Glossary Off
Versions: 1 2 3 4 5 6 7 8 9 10 11 12 13 14 15 16 17 18 19 20 21 22 23 24 25 26 27 28 29 30 31 32 33 34 35 36 37 38 39 40 41 42 43 44 45 46 47 48 49 50
000 ASUS43 KFSD 021210 RWRFSD WEATHER ROUNDUP FOR SE SOUTH DAKOTA/SW MINNESOTA/NW IOWA NATIONAL WEATHER SERVICE SIOUX FALLS SD 600 AM CST TUE MAR 02 2021 NOTE: "FAIR" INDICATES FEW OR NO CLOUDS BELOW 12,000 FEET WITH NO SIGNIFICANT WEATHER AND OR OBSTRUCTIONS TO VISIBILITY. SDZ038>040-050-052>070-021300- SOUTHEAST SOUTH DAKOTA CITY SKY/WX TMP DP RH WIND PRES REMARKS BROOKINGS CLEAR 28 24 85 S20G28 29.90F WCI 15 CHAMBERLAIN CLEAR 36 23 60 SW9 29.86F 6HR MIN TEMP: 32; 6HR MAX TEMP: 37; HURON CLEAR 32 25 75 S15 29.86F WCI 22 6HR MIN TEMP: 27; 6HR MAX TEMP: 33; MITCHELL CLEAR 36 24 62 S20G28 29.90F 6HR MIN TEMP: 31; 6HR MAX TEMP: 36; SIOUX FALLS CLEAR 31 26 82 S16 29.98F WCI 20 6HR MIN TEMP: 27; 6HR MAX TEMP: 31; WINNER CLEAR 39 19 44 SW18G28 29.85F YANKTON CLEAR 37 25 61 S20G30 30.00F $$ MNZ071-072-080-081-089-090-097-098-021300- SOUTHWEST MINNESOTA CITY SKY/WX TMP DP RH WIND PRES REMARKS FAIRMONT CLEAR 25 22 88 S21 30.06F WCI 11 JACKSON CLEAR 27 23 86 S21G26 30.04F WCI 13 LUVERNE N/A 27 23 86 S16 30.02F WCI 14 MARSHALL CLEAR 31 26 82 SW29G36 29.85F WCI 16 6HR MIN TEMP: 24; 6HR MAX TEMP: 31; 6HR PCP: TRACE; MONTEVIDEO PTCLDY 28 21 74 SW14 29.88F WCI 17 PIPESTONE CLEAR 28 25 86 SW20 29.95F WCI 15 REDWOOD FALLS CLEAR 29 23 78 S22G32 29.95F WCI 15 TRACY LGT SNOW 31 23 74 SW31G39 29.90F WCI 16 WINDOM CLEAR 27 23 86 S20G26 29.99F WCI 13 WORTHINGTON CLEAR 27 24 89 S25G32 29.98F WCI 12 $$ IAZ001>003-012>014-020>022-031-032-NEZ013-014-SDZ071-021300- NORTHWEST IOWA CITY SKY/WX TMP DP RH WIND PRES REMARKS CHEROKEE CLEAR 27 25 92 S12 30.11F WCI 16 DENISON CLEAR 27 27 100 S14G21 30.16F WCI 15 ESTHERVILLE CLEAR 23 21 92 S20 30.06F WCI 8 LE MARS CLEAR 27 25 93 S15G21 30.07S WCI 15 MAURICE FAIR 27 27 100 S17 30.05F WCI 14 SHELDON CLEAR 27 27 100 S18 30.03F WCI 13 SIOUX CITY CLEAR 29 25 85 S7 30.11F WCI 22 6HR MIN TEMP: 26; 6HR MAX TEMP: 29; SPENCER CLEAR 26 21 81 S14 30.08F WCI 14 6HR MIN TEMP: 25; 6HR MAX TEMP: 26; STORM LAKE CLEAR 25 25 100 S22 N/A WCI 10 $$ ABBREVIATIONS USED IN REMARKS TC - TEMPERATURE IN CELSIUS WCI - WIND CHILL INDEX HX - HEAT INDEX VSB - VISIBILITY

USA.gov is the U.S. government's official web portal to all federal, state and local government web resources and services.